Regional Weather Roundup
Issued by NWS State College, PA

Home | Current Version | Previous Version | Text Only | Print | Product List | Glossary On
Versions: 1 2 3 4 5 6 7 8 9 10 11 12 13 14 15 16 17 18 19 20 21 22 23 24 25 26 27 28 29 30 31 32 33 34 35 36 37 38 39 40 41 42 43 44 45 46 47 48 49 50
000
ASUS41 KCTP 210510
RWRCTP

REGIONAL WEATHER ROUNDUP
NATIONAL WEATHER SERVICE STATE COLLEGE PA
100 AM EDT MON AUG 21 2017

Note: "fair" indicates few or no clouds below 12,000 feet with no
significant weather and/or obstructions to visibility.

* = STATION THAT DOES NOT REPORT PRECIPITATION /E.G. RAIN...SNOW...ETC/
    THUNDER OR FOG.

PAZ002>004-007>009-013>016-020>023-029>032-210600-
WESTERN PENNSYLVANIA

CITY           SKY/WX    TMP DP  RH WIND       PRES   REMARKS
ERIE           PTCLDY    72  58  61 S14       30.12S
MEADVILLE      MOCLDY    70  58  65 CALM      30.17S
FRANKLIN*      MOCLDY    63  55  77 SE6       30.19S
NEW CASTLE     FAIR      65  63  93 CALM      30.17S
BEAVER COUNTY  NOT AVBL
BUTLER*        CLOUDY    64  63  94 NE3       30.18S
PITTSBURGH INT CLOUDY    71  64  78 SE3       30.17R
PITTSBURGH     CLEAR     69  62  78 S5        30.17S
INDIANA*       CLEAR     63  61  94 CALM      30.23S
LATROBE        CLEAR     63  63 100 MISG      30.19S
WASHINGTON CO* CLEAR     63  63 100 CALM      30.17S
$$

PAZ004>006-010>012-017>019-024>028-033>037-041-042-045-046-049>053-210600-
CENTRAL PENNSYLVANIA

CITY           SKY/WX    TMP DP  RH WIND       PRES   REMARKS
BRADFORD       CLOUDY    55  55 100 SE3       30.22S
DUBOIS         CLEAR     61  56  83 SE7       30.21R
CLEARFIELD     CLEAR     59  57  93 N6        30.22S
JOHNSTOWN      CLOUDY    67  61  81 S6        30.24S
ALTOONA        CLOUDY    62  61  96 CALM      30.22S
STATE COLLEGE  CLEAR     65  60  84 CALM      30.22R
WILLIAMSPORT   CLEAR     65  64  97 CALM      30.17S
SELINSGROVE    CLEAR     61  61 100 CALM      30.19S FOG
FT INDIANTOWN  CLEAR     62  62 100 CALM      30.19F
CAPITAL CITY   CLEAR     67  62  84 SW3       30.19S
HARRISBURG     PTCLDY    69  66  90 NE3       30.18S
YORK           CLEAR     62  62 100 CALM      30.20S
$$

PAZ038>040-043-044-047-048-054-055-060>062-067>071-210600-
EASTERN PENNSYLVANIA

CITY           SKY/WX    TMP DP  RH WIND       PRES   REMARKS
SCRANTON       CLEAR     64  62  93 S3        30.20R
MOUNT POCONO     N/A     61  60  97 W5        30.24S
ALLENTOWN      CLEAR     67  63  87 CALM      30.19R
QUAKERTOWN*    CLEAR     64  64 100 CALM      30.21R
READING        CLEAR     67  66  97 CALM      30.18F
LANCASTER      CLEAR     65  63  93 CALM      30.20R
COATESVILLE    CLEAR     68  63  83 W3        30.23S
POTTSTOWN      CLEAR     64  63  96 CALM      30.21S
BLUE BELL      CLEAR     61  61 100 CALM      30.21R
DOYLESTOWN     CLEAR     67  64  90 CALM      30.19R
WILLOW GROVE   NOT AVBL
NORTH PHILA    CLEAR     69  63  81 CALM      30.20R
PHILADELPHIA   PTCLDY    73  67  81 SW5       30.19R
$$



USA.gov is the U.S. government's official web portal to all federal, state and local government web resources and services.